Temp
-11 -11 -11 -12 -12 -12 -12 -12 -13 -13 -13 -13 -13 -13 -13 -13 -13 -13 -14 -14 -14 -14 -14 -14 -14 -14 -15 -16 -16 -17 -17 -17 -17 -17 -18 -18 -19 -19 -19 -20 -20 -21 -21
-12 -12 -12 -12 -13 -14 -14 -14 -14 -13 -14 -14 -14 -14 -14 -14 -14 -14 -14 -14 -14 -14 -14 -14 -15 -15 -16 -16 -17 -18 -18 -18 -18 -18 -18 -18 -19 -19 -20 -20 -20 -21 -22
-13 -13 -13 -13 -13 -13 -14 -14 -15 -15 -14 -14 -15 -14 -14 -14 -15 -14 -14 -15 -15 -15 -15 -15 -16 -16 -16 -17 -17 -18 -18 -19 -19 -19 -19 -19 -20 -20 -20 -21 -21 -22 -22
-14 -14 -13 -13 -13 -13 -14 -15 -15 -16 -16 -16 -16 -15 -15 -15 -15 -15 -15 -15 -15 -15 -16 -16 -16 -17 -18 -18 -18 -19 -19 -19 -19 -19 -19 -20 -20 -20 -21 -21 -22 -22 -22
-14 -14 -14 -14 -14 -14 -14 -14 -15 -16 -16 -16 -16 -16 -16 -15 -16 -16 -16 -16 -16 -16 -16 -17 -18 -18 -19 -19 -19 -19 -19 -19 -19 -19 -20 -21 -21 -21 -22 -22 -22 -23 -23
-14 -14 -14 -14 -14 -14 -14 -14 -15 -15 -16 -17 -17 -16 -16 -16 -16 -17 -17 -18 -17 -17 -17 -17 -19 -19 -19 -19 -20 -19 -19 -19 -20 -21 -21 -21 -21 -21 -22 -22 -22 -23 -23
-14 -14 -14 -14 -14 -14 -14 -14 -14 -15 -16 -17 -17 -17 -17 -18 -17 -17 -17 -17 -18 -18 -18 -18 -19 -19 -19 -19 -19 -19 -19 -20 -20 -21 -21 -21 -22 -22 -22 -22 -23 -23 -23
-15 -15 -15 -15 -14 -15 -15 -16 -16 -16 -16 -17 -18 -19 -18 -18 -19 -19 -18 -18 -18 -18 -19 -19 -18 -19 -20 -20 -19 -20 -19 -20 -21 -21 -21 -22 -22 -22 -22 -22 -23 -23 -23
-15 -15 -15 -15 -16 -16 -16 -17 -18 -18 -18 -17 -18 -19 -19 -19 -19 -19 -19 -19 -20 -19 -19 -19 -19 -19 -19 -19 -20 -19 -20 -20 -21 -22 -22 -22 -22 -22 -22 -23 -23 -23 -24
-17 -17 -17 -17 -17 -17 -17 -18 -18 -18 -18 -18 -19 -19 -19 -19 -19 -19 -19 -18 -19 -19 -19 -19 -19 -20 -20 -20 -20 -20 -20 -21 -21 -22 -22 -22 -22 -22 -23 -23 -23 -24 -24
-17 -17 -17 -18 -18 -18 -18 -18 -18 -19 -18 -18 -19 -19 -19 -20 -20 -20 -20 -19 -20 -19 -20 -20 -20 -20 -20 -20 -20 -20 -20 -21 -22 -22 -22 -22 -22 -22 -23 -23 -23 -24 -24
-18 -18 -18 -18 -18 -19 -19 -19 -19 -19 -19 -19 -19 -19 -20 -19 -20 -20 -20 -20 -20 -20 -20 -20 -20 -20 -20 -20 -20 -20 -21 -21 -22 -22 -22 -22 -22 -23 -23 -23 -24 -24 -25
-18 -18 -18 -18 -18 -19 -19 -19 -19 -19 -19 -19 -19 -19 -20 -20 -20 -20 -20 -20 -20 -20 -20 -20 -20 -20 -20 -20 -20 -21 -21 -22 -22 -22 -22 -22 -22 -23 -23 -24 -25 -25 -25
-18 -18 -18 -19 -19 -19 -19 -19 -19 -19 -19 -19 -19 -20 -20 -20 -20 -20 -20 -20 -20 -20 -20 -20 -20 -20 -21 -21 -21 -22 -22 -22 -22 -22 -22 -22 -23 -23 -24 -25 -25 -26 -26
-18 -18 -19 -19 -19 -19 -19 -19 -19 -19 -19 -19 -19 -19 -20 -20 -20 -20 -20 -21 -21 -20 -21 -21 -21 -21 -21 -21 -22 -22 -22 -22 -22 -22 -22 -23 -23 -24 -25 -25 -26 -26 -27
-18 -18 -19 -19 -19 -19 -19 -19 -19 -19 -19 -19 -19 -20 -20 -20 -20 -20 -20 -20 -21 -21 -21 -21 -21 -21 -21 -21 -21 -21 -22 -22 -22 -22 -23 -23 -24 -25 -26 -26 -27 -28 -28
-19 -19 -19 -19 -19 -19 -19 -19 -20 -20 -20 -20 -20 -20 -20 -20 -20 -20 -21 -21 -21 -21 -21 -21 -21 -22 -22 -22 -22 -22 -22 -22 -23 -23 -24 -24 -25 -26 -27 -27 -28 -28 -29
-19 -19 -18 -19 -19 -19 -20 -20 -20 -20 -21 -21 -21 -21 -21 -21 -21 -21 -21 -21 -21 -21 -21 -22 -22 -22 -22 -22 -22 -23 -23 -23 -24 -24 -24 -25 -26 -27 -27 -28 -29 -29 -30
-20 -20 -19 -19 -19 -19 -19 -19 -20 -20 -21 -21 -21 -21 -21 -21 -21 -21 -21 -22 -22 -22 -22 -22 -22 -23 -24 -24 -24 -24 -24 -25 -25 -26 -26 -27 -28 -28 -29 -29 -29 -30 -30
-20 -20 -20 -20 -20 -20 -20 -21 -21 -21 -21 -21 -21 -21 -22 -22 -22 -22 -22 -22 -22 -23 -23 -23 -24 -25 -25 -25 -25 -25 -26 -26 -26 -26 -26 -28 -29 -29 -29 -29 -30 -30 -30
-21 -21 -21 -21 -21 -21 -21 -21 -21 -21 -21 -21 -22 -22 -22 -22 -22 -22 -22 -23 -23 -24 -24 -24 -25 -25 -26 -26 -27 -27 -27 -27 -27 -27 -27 -29 -29 -29 -29 -29 -30 -31 -31
-21 -21 -21 -21 -22 -22 -22 -22 -22 -22 -22 -22 -22 -22 -22 -22 -23 -23 -23 -24 -24 -25 -26 -26 -26 -26 -27 -27 -28 -28 -28 -28 -29 -30 -30 -30 -30 -30 -30 -30 -30 -31 -31
-22 -22 -22 -22 -22 -22 -22 -22 -22 -22 -23 -23 -23 -23 -23 -24 -24 -25 -26 -26 -26 -26 -27 -27 -27 -28 -28 -28 -28 -29 -29 -30 -30 -30 -30 -31 -31 -31 -31 -31 -32 -32 -32
-23 -23 -23 -23 -23 -23 -23 -23 -23 -23 -23 -24 -24 -25 -26 -26 -26 -27 -27 -27 -27 -27 -27 -27 -28 -28 -28 -28 -29 -29 -29 -30 -30 -31 -31 -31 -32 -32 -32 -32 -32 -33 -33
-24 -24 -24 -24 -24 -24 -25 -25 -25 -26 -26 -26 -27 -26 -27 -27 -27 -27 -27 -27 -27 -28 -28 -29 -29 -30 -30 -30 -30 -30 -31 -31 -31 -31 -32 -32 -32 -32 -33 -33 -34 -34 -34
-25 -25 -25 -25 -26 -26 -27 -27 -27 -27 -27 -27 -27 -27 -27 -27 -27 -28 -28 -28 -29 -29 -30 -30 -30 -31 -31 -31 -31 -32 -32 -32 -33 -33 -33 -33 -34 -34 -34 -35 -35 -35 -35
Height
5790 5789 5789 5789 5788 5787 5786 5786 5785 5786 5786 5782 5781 5781 5780 5778 5776 5774 5772 5769 5766 5762 5759 5754 5749 5745 5741 5737 5732 5728 5723 5719 5715 5709 5704 5698 5690 5682 5674 5667 5659 5652 5644
5780 5779 5778 5777 5776 5774 5774 5773 5773 5772 5772 5770 5768 5767 5766 5765 5762 5760 5759 5756 5753 5749 5745 5741 5737 5733 5728 5725 5720 5716 5712 5708 5704 5698 5691 5685 5678 5670 5664 5657 5649 5641 5633
5768 5768 5767 5767 5766 5764 5762 5760 5759 5759 5759 5757 5756 5754 5752 5751 5749 5746 5744 5742 5739 5735 5732 5728 5724 5721 5717 5713 5709 5704 5701 5695 5691 5686 5680 5672 5664 5657 5651 5645 5638 5630 5622
5757 5757 5755 5756 5756 5753 5750 5748 5746 5744 5743 5743 5742 5741 5740 5738 5735 5731 5729 5726 5725 5721 5719 5715 5711 5708 5704 5701 5697 5693 5688 5683 5678 5673 5668 5659 5652 5646 5639 5633 5626 5619 5611
5745 5743 5742 5741 5740 5738 5737 5734 5732 5731 5730 5728 5727 5727 5725 5723 5720 5718 5715 5713 5711 5708 5704 5701 5697 5695 5692 5689 5685 5681 5676 5671 5666 5661 5654 5648 5641 5634 5629 5622 5614 5608 5602
5731 5730 5729 5727 5726 5725 5723 5720 5719 5717 5716 5714 5713 5711 5710 5708 5706 5702 5699 5696 5696 5692 5689 5686 5685 5681 5677 5674 5671 5668 5664 5659 5655 5648 5642 5636 5629 5624 5618 5612 5606 5599 5592
5715 5713 5713 5713 5712 5710 5708 5706 5705 5703 5701 5699 5698 5696 5694 5694 5692 5689 5687 5684 5681 5679 5676 5673 5671 5668 5665 5661 5658 5655 5651 5647 5641 5634 5629 5623 5617 5612 5606 5601 5595 5589 5582
5701 5699 5698 5698 5698 5696 5694 5692 5691 5689 5687 5684 5682 5681 5679 5677 5674 5674 5673 5671 5671 5667 5665 5662 5659 5654 5651 5648 5645 5642 5638 5633 5628 5622 5615 5610 5605 5599 5593 5588 5584 5577 5569
5685 5685 5684 5684 5682 5681 5680 5679 5678 5676 5674 5671 5670 5668 5665 5662 5661 5660 5657 5656 5656 5653 5651 5648 5644 5640 5638 5636 5633 5629 5625 5619 5614 5608 5602 5597 5592 5587 5581 5576 5570 5565 5559
5672 5670 5670 5669 5667 5666 5665 5664 5662 5661 5659 5657 5655 5653 5651 5649 5648 5646 5646 5644 5642 5639 5636 5633 5631 5627 5625 5622 5619 5616 5611 5604 5600 5594 5588 5583 5578 5573 5567 5562 5557 5552 5545
5661 5660 5658 5657 5656 5654 5654 5652 5649 5647 5645 5644 5642 5640 5639 5635 5634 5633 5630 5628 5626 5623 5621 5619 5617 5614 5611 5608 5604 5600 5595 5591 5586 5580 5574 5568 5564 5559 5554 5549 5544 5538 5531
5650 5649 5647 5645 5644 5641 5640 5638 5636 5634 5632 5630 5628 5625 5623 5620 5618 5617 5614 5613 5611 5609 5607 5604 5601 5599 5596 5592 5589 5584 5580 5577 5571 5566 5559 5554 5550 5545 5541 5535 5529 5523 5516
5640 5639 5637 5635 5632 5631 5629 5626 5624 5622 5619 5617 5615 5613 5611 5608 5607 5605 5603 5600 5598 5595 5593 5590 5586 5583 5580 5577 5573 5569 5565 5561 5555 5550 5544 5539 5535 5531 5525 5521 5515 5509 5502
5629 5627 5625 5624 5622 5620 5617 5614 5612 5610 5608 5606 5604 5601 5599 5595 5592 5589 5587 5586 5583 5581 5578 5575 5572 5568 5565 5561 5557 5553 5548 5543 5538 5533 5529 5524 5520 5515 5510 5506 5500 5495 5489
5617 5615 5613 5611 5609 5607 5605 5603 5601 5598 5596 5594 5592 5589 5587 5584 5579 5576 5574 5572 5569 5566 5563 5560 5556 5552 5548 5544 5540 5534 5530 5525 5521 5516 5512 5507 5503 5498 5492 5488 5483 5479 5474
5605 5604 5602 5600 5599 5597 5594 5592 5589 5587 5583 5581 5578 5575 5572 5569 5564 5561 5559 5556 5553 5550 5548 5544 5541 5536 5531 5526 5521 5518 5513 5509 5503 5499 5495 5491 5485 5481 5477 5472 5467 5462 5456
5591 5590 5590 5588 5586 5584 5582 5579 5576 5573 5570 5566 5564 5561 5557 5553 5550 5546 5542 5539 5536 5533 5531 5527 5522 5518 5513 5509 5505 5501 5496 5491 5487 5482 5478 5474 5469 5465 5460 5455 5450 5446 5441
5577 5575 5574 5573 5572 5570 5567 5565 5562 5559 5555 5551 5548 5545 5541 5538 5534 5531 5527 5524 5520 5515 5511 5508 5503 5498 5494 5489 5485 5481 5477 5473 5469 5464 5460 5456 5452 5447 5443 5439 5434 5431 5425
5564 5561 5560 5558 5556 5553 5551 5549 5547 5544 5541 5537 5533 5528 5525 5521 5517 5512 5508 5504 5501 5496 5491 5487 5483 5478 5473 5468 5464 5461 5456 5453 5451 5447 5442 5438 5434 5429 5425 5421 5417 5413 5410
5548 5546 5543 5540 5539 5537 5534 5530 5527 5525 5521 5517 5513 5509 5505 5502 5497 5492 5487 5483 5480 5476 5470 5466 5461 5457 5452 5447 5443 5439 5435 5431 5430 5427 5423 5418 5414 5410 5407 5403 5400 5396 5393
5531 5528 5527 5523 5520 5518 5516 5513 5510 5506 5503 5498 5494 5488 5484 5480 5474 5471 5467 5461 5455 5451 5447 5442 5438 5434 5429 5425 5420 5416 5413 5409 5406 5403 5400 5397 5394 5390 5386 5384 5382 5378 5375
5512 5510 5506 5503 5500 5497 5494 5491 5488 5484 5480 5474 5470 5465 5460 5456 5451 5445 5441 5436 5433 5428 5423 5418 5414 5410 5405 5401 5396 5391 5388 5385 5382 5378 5375 5373 5371 5368 5365 5362 5359 5356 5353
5492 5489 5486 5482 5479 5476 5471 5466 5462 5458 5454 5450 5446 5440 5434 5429 5424 5419 5415 5411 5407 5403 5397 5392 5387 5384 5381 5377 5372 5367 5363 5361 5357 5354 5351 5348 5345 5343 5341 5337 5336 5333 5331
5470 5467 5464 5460 5455 5450 5446 5441 5436 5432 5428 5424 5418 5414 5409 5404 5400 5395 5389 5385 5381 5375 5370 5364 5360 5355 5351 5348 5343 5339 5335 5332 5330 5327 5324 5322 5320 5317 5315 5313 5312 5309 5308
5445 5441 5438 5433 5429 5424 5419 5415 5410 5406 5401 5396 5392 5388 5383 5378 5374 5369 5363 5356 5351 5347 5341 5336 5330 5325 5321 5318 5315 5310 5307 5303 5302 5299 5295 5293 5291 5289 5288 5286 5285 5284 5284
5420 5416 5412 5408 5403 5399 5394 5390 5384 5379 5375 5369 5364 5359 5355 5350 5345 5339 5333 5328 5323 5317 5312 5307 5303 5298 5294 5290 5286 5283 5280 5276 5274 5271 5268 5266 5264 5262 5261 5260 5259 5260 5260
Wind_Speed
42 42 45 47 52 59 59 58 57 56 53 57 58 57 58 59 59 60 60 62 62 61 61 61 61 61 59 59 56 54 53 54 56 60 61 64 61 60 55 55 57 55 57
44 42 41 44 49 56 60 60 59 59 58 58 58 59 59 59 59 61 60 61 62 62 62 64 61 60 58 58 56 53 54 54 60 61 61 64 63 58 55 55 56 56 57
48 47 48 48 45 46 53 60 62 60 59 59 60 60 61 60 61 61 60 60 59 63 62 60 59 59 57 56 55 53 53 61 58 61 60 59 59 56 55 56 56 55 57
51 49 50 51 51 52 54 57 62 64 64 63 61 63 64 63 62 62 60 59 60 59 60 56 57 60 61 57 53 57 57 61 60 62 60 59 57 55 55 56 56 54 57
51 47 43 46 48 52 56 57 58 60 61 61 61 63 63 62 61 61 60 61 61 60 58 58 64 58 51 53 54 57 65 58 61 62 58 61 56 55 55 57 54 54 55
54 51 46 47 48 49 48 54 59 61 61 61 59 60 61 63 61 62 64 62 60 60 66 66 57 53 55 52 58 61 57 59 62 55 59 60 54 55 57 55 53 53 55
44 45 46 48 49 50 49 51 54 59 60 67 67 57 52 52 56 59 58 56 56 55 55 55 52 52 51 56 57 60 59 59 59 56 62 54 55 58 58 55 53 53 56
42 44 45 45 47 53 54 53 55 57 60 62 56 52 53 57 52 49 48 51 52 50 50 49 51 53 58 56 62 61 61 61 60 59 57 54 57 60 58 55 52 55 59
46 48 48 50 53 54 56 57 60 60 61 64 58 53 54 55 52 55 53 50 48 48 50 57 57 57 59 59 58 62 63 61 60 57 54 57 60 60 55 52 53 57 60
48 51 54 56 57 57 59 62 62 62 65 63 56 56 54 54 54 49 52 52 56 57 56 57 59 57 57 62 65 63 60 58 59 56 58 62 61 57 54 53 57 60 60
43 46 49 51 53 54 55 55 53 54 57 56 57 55 56 51 52 49 50 55 56 57 55 54 59 64 64 63 66 58 54 60 59 59 64 63 58 56 52 57 59 61 62
40 42 44 45 46 47 47 46 48 50 50 51 52 53 55 56 53 52 56 58 56 57 58 61 62 62 67 64 57 55 58 63 62 62 63 60 58 54 54 57 61 63 63
39 38 38 39 39 41 43 45 47 46 47 47 48 48 50 52 52 54 54 55 57 59 60 60 59 55 53 56 62 60 66 68 66 65 63 60 56 56 57 58 64 63 63
41 40 39 40 40 40 40 40 40 41 42 43 44 46 47 47 48 47 49 51 53 53 53 56 60 62 61 61 55 67 70 67 66 63 63 60 57 57 60 63 64 65 64
37 37 37 37 37 37 38 39 40 42 43 44 45 46 47 48 49 49 50 49 52 56 56 57 58 54 55 57 66 68 64 65 64 62 60 59 59 60 61 65 63 65 61
36 38 38 39 38 38 39 40 42 44 46 47 48 48 49 50 52 53 53 55 57 57 58 59 61 63 62 65 66 65 63 63 62 61 63 63 61 59 64 65 63 61 58
41 40 42 43 44 44 45 45 47 48 49 50 50 49 51 54 55 55 56 58 59 62 62 64 66 65 65 66 66 67 67 64 65 62 61 62 62 61 61 61 60 60 58
46 47 47 50 51 52 52 52 52 53 54 54 55 57 57 56 56 58 60 62 63 65 66 67 69 69 68 68 68 67 67 68 68 63 63 60 59 60 60 61 59 57 56
52 51 52 54 55 56 57 58 59 58 60 60 61 62 61 61 62 64 65 66 69 70 72 72 73 72 70 70 71 72 71 71 69 67 67 62 60 62 63 61 57 57 56
55 55 56 57 60 62 62 62 62 63 64 65 68 69 71 70 70 73 75 75 75 75 75 75 73 71 71 72 73 74 74 74 73 74 70 63 62 64 64 61 58 60 60
61 61 64 63 64 66 68 70 70 70 72 74 77 78 78 79 79 80 81 80 79 79 78 77 75 75 75 74 75 75 76 76 76 77 75 70 68 71 70 70 68 66 66
67 69 70 71 72 72 73 75 77 79 80 80 82 83 84 84 83 83 82 80 79 78 77 78 78 77 77 77 78 79 79 78 77 75 74 74 75 76 76 75 72 72 70
75 76 76 78 79 80 79 81 82 83 84 85 85 84 85 85 84 83 82 82 82 82 81 81 81 81 81 81 81 81 81 80 79 80 80 81 82 82 79 76 73 73 74
79 80 82 83 83 82 83 83 85 86 88 89 88 87 85 83 83 82 83 84 84 84 86 86 85 84 83 81 82 82 83 83 83 83 83 84 83 84 85 85 83 80 75
83 84 84 84 86 87 88 89 89 89 89 87 87 88 87 86 86 87 88 88 88 86 84 83 81 80 80 80 79 79 80 80 80 80 81 81 81 81 80 79 78 76 74
85 86 87 88 88 87 88 88 88 89 90 90 90 90 90 91 91 90 88 87 85 82 80 79 79 78 78 77 78 77 77 78 78 78 78 78 76 75 74 74 72 70 66
Wind_Direction
269 268 266 268 268 267 268 268 269 270 272 273 276 277 277 278 280 281 282 284 285 287 289 289 290 291 294 296 298 297 296 298 301 302 304 308 311 314 313 313 315 315 314
266 269 270 271 270 269 270 272 273 272 272 273 275 276 278 280 280 282 283 285 287 288 288 290 291 293 294 296 296 296 297 300 300 305 310 307 312 312 312 313 315 314 314
269 267 270 272 272 273 272 271 272 274 275 276 278 278 277 278 281 282 283 284 284 286 288 288 291 293 295 295 295 295 297 299 301 311 307 310 312 311 312 313 314 315 315
275 277 276 276 276 275 273 274 275 276 276 277 278 279 279 280 281 282 284 285 286 286 287 289 293 292 295 292 294 294 294 296 307 306 306 312 311 309 312 313 313 315 318
272 273 278 279 274 273 272 272 273 275 277 278 278 279 279 279 280 282 284 284 285 287 286 287 290 290 289 290 291 290 294 304 307 304 307 309 307 309 311 310 311 314 321
274 279 280 276 277 279 281 278 277 275 273 276 277 279 281 281 281 281 281 279 282 280 284 285 284 282 289 291 287 290 298 304 302 306 304 304 307 308 309 309 308 315 319
271 272 271 270 272 275 278 280 281 280 280 270 270 273 274 280 283 282 281 279 281 283 281 281 278 282 283 287 291 296 298 302 304 302 304 305 307 307 308 306 306 312 315
268 266 268 270 274 276 276 277 276 277 280 285 287 285 285 285 276 281 285 285 280 285 278 281 281 279 281 287 292 294 300 302 305 299 301 306 305 306 306 304 305 309 312
267 268 269 271 273 273 274 275 274 276 280 283 279 276 278 279 283 275 272 274 273 273 279 283 284 283 287 292 293 298 298 302 303 300 304 304 304 304 301 300 302 305 312
273 276 277 277 280 278 277 278 279 277 278 283 285 288 291 288 290 280 286 283 281 273 279 280 281 283 286 291 296 296 300 300 300 301 302 301 301 301 299 299 302 305 312
280 280 281 282 282 284 284 284 283 282 283 285 285 282 279 281 283 278 277 281 281 280 280 281 283 286 290 292 293 298 297 302 299 300 299 300 300 298 296 300 302 305 309
278 279 281 284 286 288 289 289 290 290 290 290 290 287 286 284 279 275 277 283 284 284 283 285 288 289 290 294 295 295 301 299 299 299 298 297 298 295 297 299 302 303 308
284 285 286 286 287 288 290 293 295 293 293 292 289 289 286 283 282 282 284 284 284 286 288 290 292 294 293 296 298 302 298 297 296 296 295 294 293 293 293 296 299 303 308
283 285 288 289 288 288 287 288 290 292 292 291 291 291 291 291 289 288 288 288 289 291 292 292 293 294 296 297 296 298 294 294 295 294 293 291 290 292 293 293 298 302 306
287 286 284 285 286 289 290 291 293 293 293 293 293 293 294 295 295 295 297 295 290 290 290 290 290 290 290 293 292 289 292 291 291 292 291 288 291 291 287 293 295 301 304
287 287 289 289 290 290 290 290 291 292 291 291 291 291 292 291 291 291 291 291 291 292 293 294 293 293 290 287 285 288 290 291 290 293 290 289 289 286 291 293 295 301 303
287 289 291 291 292 292 292 292 292 291 290 289 288 287 289 290 290 290 289 289 289 290 291 292 292 291 290 287 287 288 290 292 290 292 292 291 287 289 290 291 297 300 300
284 285 286 288 289 290 290 290 289 288 286 286 286 286 287 285 285 286 287 287 288 287 287 288 288 289 288 286 286 286 286 286 289 294 292 287 287 289 290 292 292 293 295
281 281 282 284 284 285 285 286 286 286 286 287 290 289 287 286 286 285 284 284 284 284 283 283 283 284 283 282 282 283 284 286 288 289 289 287 286 288 288 291 289 291 292
277 278 278 280 282 283 282 282 283 284 284 284 286 287 287 286 286 286 285 284 284 283 282 282 281 280 280 280 281 282 283 284 284 284 285 283 284 283 286 286 284 283 284
282 283 283 283 283 283 284 284 285 285 285 284 284 284 284 284 285 284 284 283 282 281 281 281 281 282 282 281 281 282 282 283 283 283 284 283 281 281 283 284 282 282 286
280 281 281 281 282 282 282 282 282 282 282 282 283 283 284 284 285 285 285 285 285 285 286 286 286 285 284 283 282 282 282 282 283 283 282 281 281 281 282 283 282 284 287
281 281 281 281 282 282 282 282 283 283 284 284 284 284 285 286 287 288 290 291 291 291 290 288 287 286 285 284 283 281 280 278 277 276 276 276 276 278 278 278 280 283 285
281 281 282 283 283 283 283 284 285 285 286 287 287 287 288 289 289 289 290 289 289 289 289 288 287 286 284 283 281 279 278 277 276 276 275 274 274 274 274 276 278 279 279
281 281 282 282 283 285 286 287 288 288 288 289 290 290 290 291 291 291 291 290 290 289 287 286 284 283 282 281 280 278 278 278 278 277 276 276 276 275 275 275 276 276 276
281 282 283 284 285 286 287 288 290 290 290 290 291 291 291 291 291 291 291 290 289 288 287 286 284 282 281 280 279 278 278 277 277 277 277 276 276 276 276 275 275 274 272